Location: Albany
(35.0000°S, 118.0000°E)
Time: 22:35:06
(UTC-04:00)

Transit 2A - Visible Passes

Search period start: 28 July 2014 00:00
Search period end: 07 August 2014 00:00
Orbit: 603 x 960 km, 66.7° (Epoch: 27 July)

Date Brightness Start Highest point End Pass type
(mag) Time Alt. Az. Time Alt. Az. Time Alt. Az.
30 Jul 8.6 07:38:56 10° S 07:39:13 11° S 07:39:13 11° S visible
31 Jul 8.4 07:06:19 10° SSE 07:07:02 11° SSE 07:07:02 11° SSE visible
31 Jul 9.0 08:47:31 10° SSW 08:47:36 10° SSW 08:47:36 10° SSW visible
01 Aug 8.4 08:14:06 10° SSW 08:15:30 17° SSW 08:15:30 17° SSW visible
02 Aug 7.8 07:40:48 10° SSW 07:43:31 24° S 07:43:31 24° S visible
03 Aug 7.4 07:07:37 10° S 07:11:39 26° SSE 07:11:39 26° SSE visible
03 Aug 8.6 08:50:40 10° SW 08:52:14 18° SW 08:52:14 18° SW visible
04 Aug 7.5 06:34:35 10° S 06:39:04 21° SE 06:39:56 20° ESE visible
04 Aug 7.5 08:16:57 10° SSW 08:20:32 35° SW 08:20:32 35° SW visible
05 Aug 7.9 06:01:48 10° S 06:05:14 15° SE 06:08:26 10° ESE visible
05 Aug 6.2 07:43:22 10° SSW 07:49:04 78° SSW 07:49:04 78° SSW visible
06 Aug 6.1 07:09:55 10° SSW 07:15:58 64° ESE 07:17:52 41° NE visible
06 Aug 8.7 08:55:08 10° WSW 08:58:28 16° WNW 08:58:31 16° WNW visible
